Flag for U.S.A. Weather past 2 weeks in Greensboro, North Carolina, U.S.A.

Now
49 °F

Passing clouds.


Feels Like: 48 °F
Forecast: 42 / 71 °F
Wind: 3 mph from Northwest

Location: Piedmont Triad International Airport

Current Time: Mar 31, 2015 at 5:16:37 AM

Latest Report: Mar 31, 2015 at 4:54 AM


Visibility: 10 mi

Pressure: 30.00 "Hg

Humidity: 41%

Dew point: 26 °F

Location of GreensboroLocation

Historic Weather in Greensboro — Graph

°F

Greensboro temperature yesterday

Maximum temperature yesterday: 66 °F (at 3:54 PM)
Minimum temperature yesterday: 40 °F (at 8:54 AM)
Average temperature yesterday: 52 °F

Past Weeks' High & Low Weather Summary

 TemperatureHumidityPressure
High81 °F (Mar 16, 3:54 PM)100% (Mar 26, 7:01 AM)30.44 "Hg (Mar 26, 7:01 AM)
Low25 °F (Mar 29, 5:54 AM)7% (Mar 16, 3:54 PM)29.66 "Hg (Mar 27, 1:54 AM)
Average52 °F55%30.05 "Hg
* Reported Mar 16 3:54 AM — Mar 31 3:54 AM, Greensboro, Weather by CustomWeather, © 2015

Note: Actual official high and low records may vary slightly from our data, if they occured in-between our weather recording intervals... More about our weather records

Advertising

Greensboro weather history for previous 24 hours

 ConditionsComfort  
Time TempWeatherWind HumidityBarometerVisibility
3:54 AM
Tue, Mar 31
47 °FPassing clouds.3 mph44%30.00 "Hg10 mi
2:54 AM50 °FPassing clouds.6 mph39%30.01 "Hg10 mi
1:54 AM47 °FPassing clouds.5 mph46%30.02 "Hg10 mi
12:54 AM45 °FClear.3 mph53%30.02 "Hg10 mi
11:54 PM
Mon, Mar 30
50 °FClear.5 mph39%30.03 "Hg10 mi
10:54 PM51 °FClear.No wind38%30.03 "Hg10 mi
9:54 PM56 °FClear.6 mph29%30.03 "Hg10 mi
8:54 PM58 °FClear.5 mph28%30.00 "Hg10 mi
7:54 PM60 °FPassing clouds.5 mph27%29.96 "Hg10 mi
6:54 PM64 °FPassing clouds.15 mph25%29.95 "Hg10 mi
5:54 PM66 °FPassing clouds.15 mph23%29.93 "Hg10 mi
4:54 PM66 °FPassing clouds.18 mph26%29.92 "Hg10 mi
3:54 PM66 °FPassing clouds.15 mph27%29.93 "Hg10 mi
2:54 PM65 °FScattered clouds.18 mph33%29.94 "Hg10 mi
1:54 PM60 °FBroken clouds.12 mph46%29.97 "Hg10 mi
12:54 PM59 °FScattered clouds.8 mph54%29.99 "Hg10 mi
11:54 AM52 °FPartly sunny.10 mph66%30.03 "Hg10 mi
10:54 AM45 °FMostly cloudy.12 mph80%30.06 "Hg10 mi
9:54 AM41 °FPartly sunny.12 mph86%30.04 "Hg10 mi
8:54 AM40 °FLight rain. Overcast.12 mph77%30.06 "Hg8 mi
7:54 AM42 °FLight rain. Mostly cloudy.14 mph53%30.05 "Hg10 mi
6:54 AM42 °FPassing clouds.12 mph43%30.04 "Hg10 mi
5:54 AM43 °FMostly cloudy.12 mph40%30.05 "Hg10 mi
Weather by CustomWeather, © 2015

See weather overviewHow to use our weather pages